| time (UTC) | temp F | wind direction | speed MPH | gust MPH | rain 1hr in | rain 24hr in | rain mn in | humidity % | barometer mb |
| 20260505041737 | 54 | 165 | 0.0 | 2.0 | 0.01 | 0.06 | 0.00 | 93 | 1012.2 |
| 20260505041237 | 54 | 165 | 1.0 | 2.0 | 0.01 | 0.06 | 0.00 | 92 | 1012.2 |
| 20260505040737 | 54 | 165 | 0.0 | 1.0 | 0.01 | 0.06 | 0.00 | 92 | 1012.2 |
| 20260505040243 | 54 | 165 | 1.0 | 1.0 | 0.01 | 0.06 | 0.00 | 92 | 1012.2 |
| 20260505035740 | 54 | 165 | 0.0 | 1.0 | 0.01 | 0.06 | 0.00 | 92 | 1012.3 |
| 20260505035240 | 54 | 165 | 0.0 | 0.0 | 0.01 | 0.06 | 0.00 | 92 | 1012.3 |
| 20260505034737 | 54 | 165 | 0.0 | 0.0 | 0.02 | 0.06 | 0.00 | 92 | 1012.4 |
| 20260505034246 | 54 | 165 | 0.0 | 0.0 | 0.02 | 0.06 | 0.00 | 92 | 1012.5 |
| 20260505033740 | 54 | 165 | 0.0 | 0.0 | 0.03 | 0.06 | 0.00 | 92 | 1012.5 |
| 20260505033259 | 54 | 165 | 0.0 | 1.0 | 0.03 | 0.05 | 0.00 | 92 | 1012.6 |
| 20260505032737 | 54 | 165 | 0.0 | 1.0 | 0.03 | 0.05 | 0.00 | 91 | 1012.7 |
| 20260505032240 | 54 | 165 | 0.0 | 0.0 | 0.03 | 0.04 | 0.00 | 91 | 1012.7 |
| 20260505031740 | 54 | 165 | 0.0 | 0.0 | 0.03 | 0.04 | 0.00 | 91 | 1012.8 |
| 20260505031237 | 54 | 165 | 0.0 | 0.0 | 0.03 | 0.04 | 0.00 | 91 | 1012.9 |
| 20260505030737 | 54 | 165 | 0.0 | 2.0 | 0.04 | 0.04 | 0.00 | 91 | 1012.9 |
| 20260505030243 | 54 | 165 | 0.0 | 2.0 | 0.04 | 0.04 | 0.00 | 90 | 1013.0 |
| 20260505025737 | 55 | 165 | 0.0 | 2.0 | 0.04 | 0.04 | 0.00 | 90 | 1013.1 |
| 20260505025244 | 55 | 165 | 0.0 | 0.0 | 0.04 | 0.04 | 0.00 | 90 | 1013.1 |
| 20260505024743 | 55 | 165 | 0.0 | 2.0 | 0.03 | 0.03 | 0.00 | 89 | 1013.1 |
| 20260505024237 | 55 | 0 | 0.0 | 3.0 | 0.03 | 0.03 | 0.00 | 89 | 1013.2 |
| 20260505023737 | 55 | 0 | 1.0 | 3.0 | 0.03 | 0.03 | 0.00 | 88 | 1013.3 |
| 20260505023237 | 55 | 14 | 3.0 | 3.0 | 0.02 | 0.02 | 0.00 | 88 | 1013.3 |
| 20260505022747 | 55 | 50 | 2.0 | 2.0 | 0.01 | 0.01 | 0.00 | 87 | 1013.4 |
| 20260505022237 | 55 | 82 | 1.0 | 3.0 | 0.01 | 0.01 | 0.00 | 87 | 1013.5 |
| 20260505021744 | 56 | 69 | 3.0 | 3.0 | 0.00 | 0.00 | 0.00 | 86 | 1013.6 |
| 20260505021244 | 56 | 96 | 1.0 | 3.0 | 0.00 | 0.00 | 0.00 | 85 | 1013.7 |
| 20260505020738 | 56 | 104 | 1.0 | 1.0 | 0.00 | 0.00 | 0.00 | 84 | 1013.7 |
| 20260505020240 | 56 | 103 | 0.0 | 1.0 | 0.00 | 0.00 | 0.00 | 83 | 1013.6 |
| 20260505015737 | 56 | 104 | 0.0 | 2.0 | 0.00 | 0.00 | 0.00 | 83 | 1013.7 |
| 20260505015237 | 56 | 103 | 0.0 | 1.0 | 0.00 | 0.00 | 0.00 | 82 | 1013.8 |
| 20260505014737 | 56 | 103 | 0.0 | 1.0 | 0.00 | 0.00 | 0.00 | 82 | 1013.9 |
| 20260505014243 | 56 | 104 | 1.0 | 2.0 | 0.00 | 0.00 | 0.00 | 83 | 1014.0 |
| 20260505013741 | 56 | 103 | 2.0 | 2.0 | 0.00 | 0.00 | 0.00 | 83 | 1013.9 |
| 20260505013237 | 56 | 104 | 0.0 | 2.0 | 0.00 | 0.00 | 0.00 | 83 | 1014.0 |
| 20260505012740 | 56 | 105 | 2.0 | 2.0 | 0.00 | 0.00 | 0.00 | 83 | 1014.1 |
| 20260505012240 | 55 | 124 | 0.0 | 0.0 | 0.00 | 0.00 | 0.00 | 84 | 1014.2 |
| 20260505011737 | 55 | 124 | 0.0 | 1.0 | 0.00 | 0.00 | 0.00 | 84 | 1014.2 |
| 20260505011240 | 55 | 124 | 0.0 | 2.0 | 0.00 | 0.00 | 0.00 | 83 | 1014.2 |
| 20260505010740 | 55 | 124 | 1.0 | 2.0 | 0.00 | 0.00 | 0.00 | 83 | 1014.3 |
| 20260505010237 | 55 | 124 | 1.0 | 2.0 | 0.00 | 0.00 | 0.00 | 83 | 1014.3 |
| 20260505005744 | 56 | 176 | 1.0 | 5.0 | 0.00 | 0.00 | 0.00 | 82 | 1014.4 |
| 20260505005243 | 56 | 248 | 0.0 | 2.0 | 0.00 | 0.00 | 0.00 | 83 | 1014.5 |
| 20260505004743 | 56 | 94 | 0.0 | 0.0 | 0.00 | 0.00 | 0.00 | 82 | 1014.7 |
| 20260505004237 | 56 | 94 | 0.0 | 2.0 | 0.00 | 0.00 | 0.00 | 82 | 1014.7 |
| 20260505003737 | 56 | 94 | 1.0 | 2.0 | 0.00 | 0.00 | 0.00 | 81 | 1014.8 |
| 20260505003240 | 56 | 94 | 0.0 | 1.0 | 0.00 | 0.00 | 0.00 | 81 | 1015.0 |
| 20260505002737 | 56 | 94 | 0.0 | 1.0 | 0.00 | 0.00 | 0.00 | 81 | 1015.0 |
| 20260505002246 | 56 | 94 | 0.0 | 0.0 | 0.00 | 0.00 | 0.00 | 81 | 1015.1 |
| 20260505001740 | 56 | 94 | 0.0 | 2.0 | 0.00 | 0.00 | 0.00 | 81 | 1015.2 |
| 20260505001237 | 56 | 94 | 1.0 | 2.0 | 0.00 | 0.00 | 0.00 | 82 | 1015.3 |
| 20260505000740 | 56 | 94 | 0.0 | 1.0 | 0.00 | 0.00 | 0.00 | 82 | 1015.4 |
| 20260505000246 | 56 | 94 | 0.0 | 2.0 | 0.00 | 0.00 | 0.00 | 82 | 1015.5 |
| 20260504235737 | 55 | 94 | 2.0 | 2.0 | 0.00 | 0.00 | 0.00 | 83 | 1015.6 |
| 20260504235240 | 55 | 132 | 1.0 | 2.0 | 0.00 | 0.00 | 0.00 | 82 | 1015.6 |
| 20260504234737 | 55 | 138 | 0.0 | 2.0 | 0.00 | 0.00 | 0.00 | 82 | 1015.6 |
| 20260504234240 | 56 | 138 | 0.0 | 2.0 | 0.00 | 0.00 | 0.00 | 81 | 1015.6 |
| 20260504233740 | 56 | 126 | 1.0 | 2.0 | 0.00 | 0.00 | 0.00 | 81 | 1015.7 |
| 20260504233246 | 56 | 99 | 0.0 | 0.0 | 0.00 | 0.00 | 0.00 | 80 | 1015.8 |
| 20260504232743 | 56 | 99 | 0.0 | 0.0 | 0.00 | 0.00 | 0.00 | 80 | 1015.9 |
| 20260504232243 | 56 | 99 | 0.0 | 0.0 | 0.00 | 0.00 | 0.00 | 80 | 1016.0 |
| 20260504231743 | 56 | 99 | 0.0 | 0.0 | 0.00 | 0.00 | 0.00 | 80 | 1016.1 |
| 20260504231240 | 56 | 99 | 0.0 | 0.0 | 0.00 | 0.00 | 0.00 | 79 | 1016.1 |
| 20260504230737 | 56 | 99 | 0.0 | 1.0 | 0.00 | 0.00 | 0.00 | 79 | 1016.2 |
| 20260504230237 | 57 | 99 | 0.0 | 0.0 | 0.00 | 0.00 | 0.00 | 79 | 1016.2 |
| 20260504225740 | 57 | 99 | 0.0 | 0.0 | 0.00 | 0.00 | 0.00 | 79 | 1016.3 |
| 20260504225240 | 57 | 99 | 0.0 | 2.0 | 0.00 | 0.00 | 0.00 | 79 | 1016.3 |
| 20260504224737 | 57 | 86 | 2.0 | 3.0 | 0.00 | 0.00 | 0.00 | 79 | 1016.4 |
| 20260504224237 | 57 | 69 | 0.0 | 3.0 | 0.00 | 0.00 | 0.00 | 79 | 1016.4 |
| 20260504223737 | 56 | 88 | 2.0 | 3.0 | 0.00 | 0.00 | 0.00 | 79 | 1016.4 |
| 20260504223237 | 56 | 74 | 2.0 | 3.0 | 0.00 | 0.00 | 0.00 | 79 | 1016.4 |
| 20260504222737 | 57 | 131 | 1.0 | 3.0 | 0.00 | 0.00 | 0.00 | 79 | 1016.4 |
| 20260504222240 | 57 | 127 | 3.0 | 3.0 | 0.00 | 0.00 | 0.00 | 78 | 1016.5 |
| 20260504221737 | 57 | 167 | 0.0 | 3.0 | 0.00 | 0.00 | 0.00 | 77 | 1016.5 |
| 20260504221237 | 58 | 228 | 0.0 | 2.0 | 0.00 | 0.00 | 0.00 | 77 | 1016.5 |
| 20260504220737 | 58 | 128 | 1.0 | 2.0 | 0.00 | 0.00 | 0.00 | 76 | 1016.5 |
| 20260504220240 | 58 | 105 | 2.0 | 3.0 | 0.00 | 0.00 | 0.00 | 77 | 1016.5 |
| 20260504215737 | 58 | 88 | 1.0 | 2.0 | 0.00 | 0.00 | 0.00 | 76 | 1016.5 |
| 20260504215237 | 58 | 252 | 0.0 | 1.0 | 0.00 | 0.00 | 0.00 | 76 | 1016.6 |
| 20260504214737 | 58 | 252 | 0.0 | 3.0 | 0.00 | 0.00 | 0.00 | 76 | 1016.6 |
| 20260504214237 | 58 | 130 | 2.0 | 3.0 | 0.00 | 0.00 | 0.00 | 76 | 1016.7 |
| 20260504213737 | 58 | 111 | 1.0 | 3.0 | 0.00 | 0.00 | 0.00 | 75 | 1016.7 |
| 20260504213240 | 58 | 121 | 2.0 | 4.0 | 0.00 | 0.00 | 0.00 | 75 | 1016.6 |
| 20260504212740 | 58 | 122 | 3.0 | 5.0 | 0.00 | 0.00 | 0.00 | 75 | 1016.7 |
| 20260504212240 | 58 | 127 | 3.0 | 5.0 | 0.00 | 0.00 | 0.00 | 75 | 1016.7 |
| 20260504211743 | 59 | 142 | 3.0 | 5.0 | 0.00 | 0.00 | 0.00 | 74 | 1016.7 |
| 20260504211240 | 59 | 121 | 2.0 | 3.0 | 0.00 | 0.00 | 0.00 | 74 | 1016.7 |
| 20260504210740 | 59 | 173 | 1.0 | 4.0 | 0.00 | 0.00 | 0.00 | 74 | 1016.7 |
| 20260504210237 | 59 | 128 | 3.0 | 5.0 | 0.00 | 0.00 | 0.00 | 74 | 1016.7 |
| 20260504205737 | 59 | 148 | 3.0 | 4.0 | 0.00 | 0.00 | 0.00 | 74 | 1016.7 |
| 20260504205242 | 59 | 126 | 2.0 | 5.0 | 0.00 | 0.00 | 0.00 | 73 | 1016.7 |
| 20260504204740 | 59 | 140 | 3.0 | 4.0 | 0.00 | 0.00 | 0.00 | 73 | 1016.8 |
| 20260504204237 | 59 | 128 | 2.0 | 4.0 | 0.00 | 0.00 | 0.00 | 73 | 1016.9 |
| 20260504203737 | 59 | 120 | 2.0 | 5.0 | 0.00 | 0.00 | 0.00 | 73 | 1016.9 |
| 20260504203237 | 60 | 121 | 4.0 | 6.0 | 0.00 | 0.00 | 0.00 | 73 | 1016.8 |
| 20260504202737 | 60 | 135 | 0.0 | 4.0 | 0.00 | 0.00 | 0.00 | 72 | 1016.9 |
| 20260504202243 | 60 | 125 | 2.0 | 3.0 | 0.00 | 0.00 | 0.00 | 72 | 1016.9 |
| 20260504201740 | 60 | 149 | 2.0 | 3.0 | 0.00 | 0.00 | 0.00 | 72 | 1016.8 |
| 20260504201246 | 60 | 119 | 2.0 | 5.0 | 0.00 | 0.00 | 0.00 | 72 | 1016.7 |
| 20260504200740 | 60 | 150 | 3.0 | 4.0 | 0.00 | 0.00 | 0.00 | 72 | 1016.7 |
| 20260504200237 | 60 | 139 | 2.0 | 4.0 | 0.00 | 0.00 | 0.00 | 72 | 1016.6 |
| 20260504195743 | 60 | 134 | 2.0 | 3.0 | 0.00 | 0.00 | 0.00 | 72 | 1016.6 |
| 20260504195243 | 60 | 121 | 3.0 | 3.0 | 0.00 | 0.00 | 0.00 | 72 | 1016.6 |
| 20260504194737 | 60 | 125 | 2.0 | 3.0 | 0.00 | 0.00 | 0.00 | 71 | 1016.5 |
| 20260504194240 | 60 | 173 | 0.0 | 5.0 | 0.00 | 0.00 | 0.00 | 71 | 1016.5 |
| 20260504193737 | 61 | 160 | 4.0 | 4.0 | 0.00 | 0.00 | 0.00 | 71 | 1016.4 |
| 20260504193243 | 61 | 159 | 0.0 | 3.0 | 0.00 | 0.00 | 0.00 | 71 | 1016.4 |
| 20260504192737 | 61 | 176 | 0.0 | 2.0 | 0.00 | 0.00 | 0.00 | 71 | 1016.4 |
| 20260504192237 | 61 | 202 | 0.0 | 3.0 | 0.00 | 0.00 | 0.00 | 70 | 1016.3 |
| 20260504191737 | 62 | 260 | 3.0 | 5.0 | 0.00 | 0.00 | 0.00 | 70 | 1016.2 |
| 20260504191240 | 62 | 246 | 1.0 | 4.0 | 0.00 | 0.00 | 0.00 | 70 | 1016.1 |
| 20260504190742 | 62 | 196 | 1.0 | 7.0 | 0.00 | 0.00 | 0.00 | 69 | 1016.0 |
| 20260504190239 | 62 | 268 | 4.0 | 6.0 | 0.00 | 0.00 | 0.00 | 68 | 1015.9 |
| 20260504185737 | 62 | 254 | 3.0 | 5.0 | 0.00 | 0.00 | 0.00 | 68 | 1015.8 |
| 20260504185240 | 63 | 171 | 1.0 | 5.0 | 0.00 | 0.00 | 0.00 | 67 | 1015.6 |
| 20260504184742 | 63 | 123 | 1.0 | 5.0 | 0.00 | 0.00 | 0.00 | 67 | 1015.6 |
| 20260504184239 | 63 | 130 | 3.0 | 10.0 | 0.00 | 0.00 | 0.00 | 65 | 1015.6 |
| 20260504183745 | 63 | 47 | 1.0 | 8.0 | 0.00 | 0.00 | 0.00 | 64 | 1015.6 |
| 20260504183236 | 63 | 162 | 5.0 | 8.0 | 0.00 | 0.00 | 0.00 | 64 | 1015.7 |
| 20260504182740 | 63 | 159 | 1.0 | 5.0 | 0.00 | 0.00 | 0.00 | 65 | 1015.6 |
| 20260504182245 | 64 | 233 | 3.0 | 4.0 | 0.00 | 0.00 | 0.00 | 65 | 1015.6 |
| 20260504181737 | 64 | 150 | 3.0 | 6.0 | 0.00 | 0.00 | 0.00 | 66 | 1015.5 |
| 20260504181237 | 64 | 230 | 0.0 | 6.0 | 0.00 | 0.00 | 0.00 | 66 | 1015.6 |
| 20260504180736 | 64 | 197 | 0.0 | 4.0 | 0.00 | 0.00 | 0.00 | 66 | 1015.5 |
| 20260504180236 | 64 | 205 | 1.0 | 7.0 | 0.00 | 0.00 | 0.00 | 65 | 1015.5 |
| 20260504175742 | 64 | 310 | 1.0 | 7.0 | 0.00 | 0.00 | 0.00 | 64 | 1015.4 |
| 20260504175240 | 64 | 261 | 3.0 | 6.0 | 0.00 | 0.00 | 0.00 | 64 | 1015.4 |
| 20260504174740 | 65 | 0 | 2.0 | 4.0 | 0.00 | 0.00 | 0.00 | 64 | 1015.4 |
| 20260504174236 | 65 | 188 | 0.0 | 4.0 | 0.00 | 0.00 | 0.00 | 64 | 1015.3 |
| 20260504173737 | 65 | 140 | 1.0 | 7.0 | 0.00 | 0.00 | 0.00 | 64 | 1015.2 |
| 20260504173236 | 66 | 228 | 0.0 | 5.0 | 0.00 | 0.00 | 0.00 | 62 | 1015.1 |
| 20260504172739 | 66 | 157 | 1.0 | 8.0 | 0.00 | 0.00 | 0.00 | 62 | 1015.1 |
| 20260504172236 | 66 | 217 | 3.0 | 5.0 | 0.00 | 0.00 | 0.00 | 62 | 1015.1 |
| 20260504171736 | 67 | 327 | 0.0 | 4.0 | 0.00 | 0.00 | 0.00 | 61 | 1015.1 |
| 20260504171236 | 67 | 245 | 3.0 | 10.0 | 0.00 | 0.00 | 0.00 | 60 | 1015.1 |
| 20260504170736 | 67 | 84 | 1.0 | 6.0 | 0.00 | 0.00 | 0.00 | 60 | 1015.1 |
| 20260504170240 | 67 | 173 | 6.0 | 8.0 | 0.00 | 0.00 | 0.00 | 59 | 1014.9 |
| 20260504160236 | 69 | 230 | 0.0 | 4.0 | 0.00 | 0.00 | 0.00 | 51 | 1014.8 |
| 20260504150743 | 70 | 312 | 3.0 | 8.0 | 0.00 | 0.00 | 0.00 | 48 | 1014.9 |
| 20260504150236 | 70 | 278 | 7.0 | 7.0 | 0.00 | 0.00 | 0.00 | 49 | 1014.9 |
| 20260504141243 | 71 | 227 | 6.0 | 10.0 | 0.00 | 0.00 | 0.00 | 44 | 1014.9 |
| 20260504140737 | 72 | 203 | 1.0 | 10.0 | 0.00 | 0.00 | 0.00 | 40 | 1015.0 |
| 20260504140242 | 72 | 180 | 4.0 | 10.0 | 0.00 | 0.00 | 0.00 | 43 | 1014.9 |
| 20260504130739 | 70 | 163 | 1.0 | 7.0 | 0.00 | 0.00 | 0.00 | 48 | 1015.5 |
| 20260504130236 | 70 | 301 | 5.0 | 6.0 | 0.00 | 0.00 | 0.00 | 46 | 1015.5 |
| 20260504120242 | 70 | 171 | 4.0 | 10.0 | 0.00 | 0.00 | 0.00 | 46 | 1015.9 |
| 20260504110236 | 69 | 217 | 5.0 | 9.0 | 0.00 | 0.00 | 0.00 | 46 | 1016.2 |
| 20260504100236 | 67 | 233 | 2.0 | 10.0 | 0.00 | 0.00 | 0.00 | 49 | 1016.8 |
| 20260504081737 | 61 | 259 | 2.0 | 4.0 | 0.00 | 0.00 | 0.00 | 65 | 1017.1 |
| 20260504081245 | 61 | 296 | 3.0 | 4.0 | 0.00 | 0.00 | 0.00 | 63 | 1017.2 |
| 20260504080736 | 62 | 209 | 3.0 | 4.0 | 0.00 | 0.00 | 0.00 | 64 | 1017.1 |
| 20260504080239 | 61 | 215 | 0.0 | 3.0 | 0.00 | 0.00 | 0.00 | 65 | 1017.2 |
| 20260504070236 | 54 | 269 | 1.0 | 1.0 | 0.00 | 0.00 | 0.00 | 78 | 1017.6 |
| 20260504060239 | 50 | 105 | 0.0 | 0.0 | 0.00 | 0.00 | 0.00 | 85 | 1017.5 |
| 20260504050739 | 47 | 105 | 1.0 | 1.0 | 0.00 | 0.00 | 0.00 | 82 | 1017.2 |
| 20260504050236 | 47 | 105 | 0.0 | 2.0 | 0.00 | 0.00 | 0.00 | 82 | 1017.2 |
| 20260504045739 | 47 | 105 | 1.0 | 2.0 | 0.00 | 0.00 | 0.00 | 82 | 1017.2 |
| 20260504045236 | 47 | 105 | 0.0 | 0.0 | 0.00 | 0.00 | 0.00 | 82 | 1017.2 |
| 20260504044736 | 47 | 105 | 0.0 | 0.0 | 0.00 | 0.00 | 0.00 | 82 | 1017.2 |
| 20260504044242 | 47 | 105 | 0.0 | 2.0 | 0.00 | 0.00 | 0.00 | 82 | 1017.1 |
| 20260504043736 | 47 | 105 | 2.0 | 2.0 | 0.00 | 0.00 | 0.00 | 82 | 1017.1 |